www.pogodaiklimat.ru

Погода и климат >> Архив погоды >> Канада >> Eureka Climate


ПОГОДА в Eureka Climate

  • Прогноз погоды в Eureka Climate
  • Монитор погоды в Eureka Climate
  • Климат города

АРХИВ ПОГОДЫ в Eureka Climate

Время (UTC), дата Ветер
(напр.,м/с)
 
Видим.   Явления Облачность Т
(С)
Тd
(С)
f
(%)
Тe
(С)
Тes
(С)
Комфортность P
(гПа)
Po
(гПа)
Тmin
(С)
Tmax
(С)
R
(мм)
R24
(мм)
S
(см)
03 15.10 В 2 н/о н/о -25.8 -28.0 82 -33 -33 опасность
обморожения
1011.6 1010.2
06 15.10 В 1 н/о {осадки} н/о -29.1 -31.8 77 -30 -30 1011.1 1009.7 -29.5 -16.7 0.2
09 15.10 СВ 1 н/о н/о -28.4 -31.0 78 -30 -30 1010.5 1009.1
12 15.10 СВ 1 н/о н/о -30.1 -32.8 77 -31 -31 опасность
обморожения
1010.2 1008.8 -30.9 -16.7 10
15 15.10 В 1 н/о н/о -30.5 -33.3 76 -32 -32 опасность
обморожения
1009.8 1008.4
18 15.10 В 1 н/о н/о -31.4 -34.3 75 -36 -36 опасность
обморожения
1009.9 1008.5 -32.8 -27.1
21 15.10 В 1 н/о н/о -31.2 -34.2 75 -33 -33 опасность
обморожения
1010.4 1009.0
00 16.10 В 1 н/о н/о -32.1 -35.1 75 -33 -33 опасность
обморожения
1010.7 1009.3 -34.2 -24.4
03 16.10 В 1 н/о н/о -32.2 -35.2 75 -34 -34 опасность
обморожения
1011.2 1009.8
06 16.10 ЮВ 1 н/о н/о -30.1 -32.9 76 -31 -31 опасность
обморожения
1011.8 1010.4 -34.2 -24.4
09 16.10 С 1 н/о н/о -31.7 -34.8 74 -33 -33 опасность
обморожения
1012.7 1011.3
12 16.10 ЮЗ 1 н/о н/о -32.0 -35.0 75 -33 -33 опасность
обморожения
1013.0 1011.6 -32.9 -24.4 10
15 16.10 ЮВ 1 н/о н/о -31.7 -34.7 75 -33 -33 опасность
обморожения
1012.5 1011.1
18 16.10 В 1 н/о н/о -30.7 -33.6 76 -32 -32 опасность
обморожения
1012.3 1010.9 -34.2 -27.0
21 16.10 СВ 1 н/о н/о -29.0 -31.7 77 -30 -30 1011.9 1010.5
00 17.10 СВ 1 н/о н/о -29.3 -32.0 77 -33 -33 опасность
обморожения
1011.8 1010.4 -33.0 -27.0
03 17.10 В 2 н/о н/о -27.5 -30.0 79 -33 -33 опасность
обморожения
1011.8 1010.4
06 17.10 В 1 н/о н/о -27.9 -30.5 78 -32 -32 опасность
обморожения
1012.3 1010.9 -33.0 -25.9
09 17.10 ЮВ 1 н/о н/о -27.7 -30.2 79 -29 -29 1012.8 1011.4
12 17.10 В 1 н/о н/о -26.6 -29.0 80 -30 -30 1013.1 1011.7 -29.6 -25.9 10
15 17.10 ЮВ 1 н/о н/о -29.1 -31.8 77 -30 -30 1013.3 1011.9
18 17.10 В 1 н/о н/о -29.9 -32.7 76 -31 -31 опасность
обморожения
1013.3 1011.9 -30.8 -26.6
21 17.10 ЮВ 1 н/о н/о -30.9 -33.8 76 -32 -32 опасность
обморожения
1013.5 1012.1
00 18.10 СВ 1 н/о н/о -30.4 -33.2 76 -32 -32 опасность
обморожения
1013.1 1011.7 -32.0 -25.0
03 18.10 ЮВ 1 н/о н/о -31.3 -34.1 76 -33 -33 опасность
обморожения
1012.6 1011.2
06 18.10 ЮВ 1 н/о н/о -33.4 -36.6 73 -38 -38 опасность
обморожения
1011.8 1010.4 -33.5 -25.0
09 18.10 В 1 н/о н/о -32.2 -35.2 75 -34 -34 опасность
обморожения
1011.1 1009.7
12 18.10 С 2 н/о н/о -31.7 -34.6 75 -40 -40 опасность
обморожения
1010.6 1009.2 -33.7 -25.0 9
15 18.10 В 1 н/о н/о -33.4 -36.6 73 -35 -35 опасность
обморожения
1010.7 1009.3
18 18.10 В 1 н/о н/о -30.9 -33.7 76 -35 -35 опасность
обморожения
1010.9 1009.5 -34.1 -30.5
21 18.10 В 1 н/о н/о -31.0 -34.0 75 -35 -35 опасность
обморожения
1011.3 1009.9
00 19.10 Ю 1 н/о н/о -30.9 -33.8 76 -32 -32 опасность
обморожения
1011.5 1010.1 -34.1 -29.1
03 19.10 В 1 н/о н/о -30.2 -33.1 76 -34 -34 опасность
обморожения
1011.0 1009.6
06 19.10 В 1 н/о н/о -30.7 -33.5 76 -32 -32 опасность
обморожения
1011.1 1009.7 -34.1 -28.4
12 19.10 С 2 н/о н/о -30.7 -33.6 76 -37 -37 опасность
обморожения
1010.8 1009.4 -32.8 -28.4 9
15 19.10 В 1 н/о н/о -29.7 -32.5 77 -31 -31 опасность
обморожения
1010.9 1009.5
18 19.10 В 1 н/о н/о -30.1 -32.9 76 -31 -31 опасность
обморожения
1011.3 1009.9 -33.0 -28.2
21 19.10 В 1 н/о н/о -29.1 -31.7 78 -33 -33 опасность
обморожения
1012.2 1010.8
00 20.10 ЮВ 1 н/о н/о -26.6 -29.1 79 -28 -28 1012.6 1011.2 -32.8 -26.6
03 20.10 В 1 н/о н/о -26.6 -29.0 80 -28 -28 1013.1 1011.7
06 20.10 С 2 н/о н/о -28.4 -31.0 78 -34 -34 опасность
обморожения
1013.6 1012.2 -32.8 -26.0
09 20.10 В 1 н/о н/о -30.0 -32.8 76 -34 -34 опасность
обморожения
1014.6 1013.2
12 20.10 В 1 н/о н/о -28.9 -31.6 77 -30 -30 1014.8 1013.4 -30.5 -26.0 9
15 20.10 СЗ 1 н/о н/о -28.7 -31.3 78 -30 -30 1014.5 1013.1
18 20.10 н/о н/о -29.9 -32.6 77 1015.0 1013.6 -31.4 -28.1
21 20.10 СВ 1 н/о н/о -30.5 -33.3 76 -32 -32 опасность
обморожения
1015.5 1014.1
00 21.10 В 1 н/о н/о -30.1 -32.9 76 -31 -31 опасность
обморожения
1015.4 1014.0 -31.5 -28.3
03 21.10 С 2 н/о н/о -30.2 -33.0 76 -36 -36 опасность
обморожения
1015.9 1014.5
06 21.10 С 1 н/о н/о -30.4 -33.2 76 -35 -35 опасность
обморожения
1016.5 1015.1 -31.5 -28.1
09 21.10 С 1 н/о н/о -27.6 -30.2 78 -29 -29 1017.0 1015.6
12 21.10 СЗ 1 н/о н/о -28.9 -31.6 77 -30 -30 1017.3 1015.9 -31.4 -28.1 6
15 21.10 С 1 н/о н/о -25.2 -27.5 81 -26 -26 1017.7 1016.3
18 21.10 З 1 н/о н/о -24.3 -26.4 83 -25 -25 1018.0 1016.6 -31.5 -23.5
21 21.10 З 1 н/о н/о -24.2 -26.3 83 -25 -25 1018.8 1017.4

 

Местоположение метеостанции Eureka Climate (Канада): широта 79.99 долгота -85.93 высота над уровнем моря 10 м.

В архиве по умолчанию представлена погода в Eureka Climate за последнюю неделю. Архивные данные за месяц целиком и за предыдущие месяцы, начиная с января 2011 года, Вы можете получить, выбрав интересующий диапазон дат из раскрывающегося списка и нажав кнопку "Ввод!".

Внимание! Время в таблицах - всемирное. Для получения местного времени необходимо прибавить поправку, которая в Eureka Climate равна -6 ч.

Смотрите также архив погоды в соседних городах и на ближайших метеорологических станциях:

Погода в Eureka (Канада) (1 км)
Погода в Chris Hadfield (Канада) (343 км)
Погода в Isachsen (aut) (Канада) (383 км)
Погода в Mittarfik Qaanaaq (Гренландия) (453 км)
Погода в Kitsissut (Гренландия) (472 км)
Погода в Alert Climate (Канада) (482 км)
Погода в Resolute Cs (Канада) (624 км)
Погода в Resolute Airport (Канада) (624 км)
Погода в Arctic Bay (Канада) (778 км)
Погода в Pond Inlet Airport (Канада) (836 км)

Пояснения к столбцам:

Ветер - указаны скорость ветра в м/с - средняя за 10 мин, порывы в срок и между сроками (в фигурных скобках) и направление, откуда дует ветер: С - северный, СВ - северо-восточный, В - восточный, ЮВ - юго-восточный, Ю - южный, ЮЗ - юго-западный, З - западный, СЗ - северо-западный.
Видимость - горизонтальная дальность видимости в метрах или километрах. При видимости от 1 до 10 км при отсутствии осадков обычно наблюдается дымка, при ухудшении видимости до 1 км и менее - туман. В сухую погоду видимость может ухудшаться дымом, пылью или мглою.
Явления - указаны атмосферные явления, наблюдавшиеся в срок или в последний час перед сроком; фигурными скобками обозначены явления, наблюдавшиеся между сроками (за 1-3 часа до срока); квадратными скобками обозначены град или гололедные отложения с указанием их диаметра в мм.
Облачность - указаны через наклонную черту общая и нижняя облачность в баллах и высота нижней границы облаков в метрах; квадратными скобками обозначены формы облаков: Ci - перистые, Cs - перисто-слоистые, Cc - перисто-кучевые, Ac - высококучевые, As - высокослоистые, Sc - слоисто-кучевые, Ns - слоисто-дождевые, Cu - кучевые, Cb - кучево-дождевые. Подробнее классификацию облаков см. в Атласе облаков (PDF).
T - Температура воздуха - температура, измеренная на высоте 2 м над землей.
Td - Температура точки росы - температура, при понижении до которой содержащийся в воздухе водяной пар достигнет насыщения.
f - Относительная влажность воздуха - влажноcть воздуха, измеренная на высоте 2 м над землей.
Te - Эффективная температура - температура, которую ощущает одетый по сезону человек в тени. Характеристика душности погоды. При расчете учитывается влияние влажности воздуха и скорости ветра на теплоощущения человека.
Tes - Эффективная температура на солнце - температура, которую ощущает человек, с поправкой на солнечный нагрев. Характеристика знойности погоды. Зависит от высоты солнца над горизонтом, облачности и скорости ветра. Ночью, в пасмурную погоду, а также при ветре 12 м/с и более поправка равна нулю.
P - Атмосферное давление - приведенное к уровню моря атмосферное давление.
Po - Атмосферное давление - измеренное на уровне метеостанции атмосферное давление.
Tmin - Минимальная температура - минимум температуры воздуха на высоте 2 м над землей.
Tmax - Максимальная температура - максимум температуры воздуха на высоте 2 м над землей.
R - Количество осадков - Количество выпавших осадков за период времени, мм. При наведении курсора мыши на число - период времени, за который выпало указанное количество осадков.
R24 - Количество осадков - Количество выпавших осадков за 24 часа, мм.
S - Снежный покров - Высота снежного покрова, см. При наведении курсора мыши на число - состояние снежного покрова и степень покрытия местности в баллах.